Regional Weather Roundup
Issued by NWS

Home | Current Version | Previous Version | Graphics & Text | Print | Product List | Glossary On
Versions: 1 2 3 4 5 6 7 8 9 10 11 12 13 14 15 16 17 18 19 20 21 22 23 24 25 26 27 28 29 30 31 32 33 34 35 36 37 38 39 40 41 42 43 44 45 46 47 48 49 50
000
ASUS43 KFSD 222102
RWRSD

WEATHER ROUNDUP FOR SOUTH DAKOTA
NATIONAL WEATHER SERVICE SIOUX FALLS SD
400 PM CDT MON MAY 22 2017

NOTE: "FAIR" INDICATES FEW OR NO CLOUDS BELOW 12,000 FEET WITH NO
SIGNIFICANT WEATHER AND/OR OBSTRUCTIONS TO VISIBILITY.


SDZ001>005-009-010-012>017-222200-
NORTHWEST AND NORTH CENTRAL SOUTH DAKOTA

CITY           SKY/WX    TMP DP  RH WIND       PRES   REMARKS
BUFFALO          N/A     57  40  52 NE33G44   29.99R
FAITH            N/A     57  39  51 N17       30.00R
MOBRIDGE       PTSUNNY   62  36  37 N16G23    29.93R
$$

SDZ012>016-024>037-041>051-057-063-072>074-222200-
SOUTHWEST AND SOUTH CENTRAL SOUTH DAKOTA

CITY           SKY/WX    TMP DP  RH WIND       PRES   REMARKS
RAPID CTY ARPT LGT RAIN  49  40  71 N32G41    30.06R
PIERRE         MOSUNNY   60  44  55 N12       29.95S
CUSTER         CLOUDY    44  34  67 VRB6      30.07R
ELLSWORTH AFB  LGT RAIN  47  46  95 N16       30.08
PHILIP         CLOUDY    58  41  53 N18       29.99R
PINE RIDGE     CLOUDY    50  47  89 W12       30.05S
SPEARFISH      RAIN      43  41  93 W12       30.13S
WINNER         MOCLDY    61  50  67 N21G28    29.93S
$$

SDZ004>011-016>023-039-040-222200-
NORTHEAST SOUTH DAKOTA

CITY           SKY/WX    TMP DP  RH WIND       PRES   REMARKS
ABERDEEN       CLOUDY    59  36  42 N17       29.90R
WATERTOWN      CLOUDY    58  39  49 N13       29.87S
BROOKINGS      TSTM      50  46  86 N10       29.88R
SISSETON         N/A     62  42  47 N15       29.85S
$$

SDZ017-020-022-023-036>040-048>070-222200-
SOUTHEAST SOUTH DAKOTA

CITY           SKY/WX    TMP DP  RH WIND       PRES   REMARKS
SIOUX FALLS    CLOUDY    62  50  64 W12       29.87S
HURON          LGT RAIN  51  48  89 N12       29.92R
CHAMBERLAIN    CLOUDY    59  48  67 N17G25    29.92S
MITCHELL       CLOUDY    60  49  66 N15       29.91R
YANKTON        CLOUDY    63  47  55 W16       29.89F
$$

ABBREVIATIONS USED IN REMARKS
   TC - TEMPERATURE IN CELSIUS
  WCI - WIND CHILL INDEX
   HX - HEAT INDEX
  VSB - VISIBILITY





USA.gov is the U.S. government's official web portal to all federal, state and local government web resources and services.